sat.trackr.live / text

‹ back to catalog

STARLINK-31152

NORAD 58734 · 2024-005G

PAYLOAD ACTIVE UNKNOWN

§ Identity

Operator
Country
US
Launch date
2024-01-07
Launch site
AFETR
Launch vehicle
Mass (kg)
RCS (m²)

Purposes: comms

External: N2YO · Heavens-Above · Gunter

§ Orbital elements

Epoch: 2026-05-24T17:04:07.025952Z

Period
94.27 min
Inclination
42.9999°
Eccentricity
0.0001351
Mean motion
15.27595697 rev/d
Perigee alt
482.1 km
Apogee alt
483.9 km
Semi-major
6,861.1 km
B*
3.2890e-4
RAAN
150.1269°
Arg perigee
269.2351°
Mean anomaly
90.8346°
Rev number
13,207

§ Raw data

STARLINK-311521 58734U 24005G   26144.71119243  .00008804  00000+0  32890-3 0  99972 58734  42.9999 150.1269 0001351 269.2351  90.8346 15.27595697132072

JSON: /api/v1/satellites/58734 · /tle

For live sub-satellite position, see the globe view (requires WebGL).

§ Visibility from observer

Set your observer location to see the next 7 days of passes ≥ 10°. The values pass through the URL so the page stays shareable.

No JS? Fill the form by hand. The geolocation button needs JavaScript.